Regional Weather Roundup
Issued by NWS

Home | Current Version | Previous Version | Graphics & Text | Print | Product List | Glossary On
Versions: 1 2 3 4 5 6 7 8 9 10 11 12 13 14 15 16 17 18 19 20 21 22 23 24 25 26 27 28 29 30 31 32 33 34 35 36 37 38 39 40 41 42 43 44 45 46 47 48 49 50
000
ASUS44 KMEG 031010
RWRTN
TENNESSEE HOURLY STATE WEATHER ROUNDUP
NATIONAL WEATHER SERVICE MEMPHIS TN
500 AM CDT FRI JUL 03 2015

TNZ002-004-019-021-049-052-054-088>092-031100-
WEST TENNESSEE

CITY           SKY/WX    TMP DP  RH WIND       PRES   REMARKS
MEMPHIS INTL   CLOUDY    75  70  84 SW5       29.89R
NWS MEMPHIS      N/A     72 N/A N/A MISG        N/A
JACKSON        CLOUDY    71  68  90 SW7       29.88R
DYERSBURG        N/A    N/A N/A N/A MISG        N/A
PARIS          CLEAR     68  66  94 SW5       29.86S
LEXINGTON      CLOUDY    70  68  94 SW5       29.89R
$$

TNZ008-025-027-028-033-062-065-066-031100-
NORTH MIDDLE TENNESSEE

CITY           SKY/WX    TMP DP  RH WIND       PRES   REMARKS
NASHVILLE      CLOUDY    73  72  96 SW5       29.87R
CLARKSVILLE    CLOUDY    72  70  93 SW7       29.84R
SMYRNA         CLOUDY    73  71  93 SW7       29.88R
COOKEVILLE     CLOUDY    73  73 100 S3        29.87S
CROSSVILLE     CLOUDY    70  67  90 CALM      29.94R
$$

TNZ061-075-076-078-094-096-097-031100-
SOUTH MIDDLE TENNESSEE

CITY           SKY/WX    TMP DP  RH WIND       PRES   REMARKS
FAYETTEVILLE   MOCLDY    70  66  88 SW6       29.92R
TULLAHOMA      PTCLDY    72  70  94 SW3       29.92R
WINCHESTER     MOCLDY    73  70  88 W3        29.92R
MCMINNVILLE    PTCLDY    73  73 100 CALM      29.90R
COLUMBIA       MOCLDY    72  72 100 SW10      29.88R
SHELBYVILLE    PTCLDY   N/A N/A N/A MISG        N/A
$$

TNZ017-018-042-046-047-031100-
NORTHEAST TENNESSEE

CITY           SKY/WX    TMP DP  RH WIND       PRES   REMARKS
TRI CITIES     LGT RAIN  68  67  96 CALM      29.94R
ELIZABETHTON   CLOUDY    64  64 100 E3        29.95R
$$

TNZ012-013-036-069-073-074-031100-
CENTRAL EAST TENNESSEE

CITY           SKY/WX    TMP DP  RH WIND       PRES   REMARKS
KNOXVILLE      HVY RAIN  68  67  96 S12       29.90F
OAK RIDGE      LGT RAIN  70  68  93 S3        29.91F
GATLINBURG     CLOUDY    68  66  94 SW8       29.92R
MORRISTOWN     PTSUNNY   70  70 100 S6        29.93R
$$

TNZ083-085-099-031100-
SOUTHEAST TENNESSEE

CITY           SKY/WX    TMP DP  RH WIND       PRES   REMARKS
CHATTANOOGA    CLOUDY    73  71  93 SW3       29.89R
$$

SKY/WX REPORTED AS FAIR MEANS FEW OR NO CLOUDS BELOW
12 THOUSAND FEET.




USA.gov is the U.S. government's official web portal to all federal, state and local government web resources and services.